Weather reports worldwide

Advertisment
Exeter Airport No. 2, United Kingdom (3844): temperature & dewpoint: 12.01.2018 13:00:00 - 18.01.2018 13:00:00 (GMT)Exeter Airport No. 2, United Kingdom (3844): wind speed & gusts: 12.01.2018 13:00:00 - 18.01.2018 13:00:00 (GMT)Exeter Airport No. 2, United Kingdom (3844): wind direction: 12.01.2018 13:00:00 - 18.01.2018 13:00:00 (GMT)Exeter Airport No. 2, United Kingdom (3844): reduced air pressure: 12.01.2018 13:00:00 - 18.01.2018 13:00:00 (GMT)Exeter Airport No. 2, United Kingdom (3844): visibility: 12.01.2018 13:00:00 - 18.01.2018 13:00:00 (GMT)Exeter Airport No. 2, United Kingdom (3844): sunshine duration: 12.01.2018 13:00:00 - 18.01.2018 13:00:00 (GMT)Exeter Airport No. 2, United Kingdom (3844): precipitation: 12.01.2018 13:00:00 - 18.01.2018 13:00:00 (GMT)
Date & Time tt [°C] td [°C] ff [km/h] ff [kn] fx [km/h] fx [kn] dd ppp [hPa] vv [km] sd [min] rr [mm]
18.01.2018 13:00:00 6,6 4,7 22 12 52 28 W 1005,1 27 18 0,8
18.01.2018 12:00:00 9,2 5,2 22 12 - - W 1004,9 35 30 0,2
18.01.2018 11:00:00 7,8 5,8 13 7 - - W 1005,4 8 0 0,0
18.01.2018 10:00:00 6,8 5,6 11 6 - - WNW 1005,0 23 0 0,6
18.01.2018 09:00:00 7,0 5,2 16 9 - - W 1004,4 24 0 0,4
18.01.2018 08:00:00 7,4 5,0 21 11 - - W 1003,5 14 0 0,0
18.01.2018 07:00:00 7,8 3,3 18 10 - - W 1002,8 25 0 0,0
18.01.2018 06:00:00 8,5 3,5 29 16 72 39 W 1002,1 23 0 0,0
18.01.2018 05:00:00 9,4 5,5 29 16 70 38 WNW 1001,4 12 0 0,0
18.01.2018 04:00:00 10,6 5,5 46 25 83 45 W 1000,1 11 0 0,0
18.01.2018 03:00:00 12,2 7,3 46 25 87 47 W 999,1 21 0 0,0
18.01.2018 02:00:00 12,3 8,5 44 24 89 48 W 999,1 29 0 0,0
18.01.2018 01:00:00 11,5 9,6 46 25 70 38 W 999,3 18 0 0,2
18.01.2018 00:00:00 11,0 9,2 44 24 61 33 WSW 1000,3 50 - 0,8
17.01.2018 23:00:00 9,8 8,5 31 17 54 29 SW 1001,5 5 0 1,8
17.01.2018 22:00:00 8,9 7,6 31 17 48 26 SW 1003,1 12 0 0,2
17.01.2018 21:00:00 7,2 5,7 22 12 - - SW 1005,9 12 0 0,2
17.01.2018 20:00:00 6,5 5,0 13 7 - - SSW 1008,4 12 0 0,4
17.01.2018 19:00:00 6,2 4,3 15 8 - - SSW 1010,2 13 0 0,2
17.01.2018 18:00:00 6,1 3,7 18 10 - - SW 1010,8 23 0 0,0
17.01.2018 17:00:00 6,8 3,4 16 9 - - W 1012,2 9 0 0,0
17.01.2018 16:00:00 6,3 3,1 22 12 - - WSW 1012,3 23 0 0,0
17.01.2018 15:00:00 7,7 1,9 24 13 - - W 1012,4 24 48 0,0
17.01.2018 14:00:00 7,2 3,4 18 10 52 28 W 1012,9 30 48 0,0
17.01.2018 13:00:00 7,8 2,3 29 16 - - W 1012,9 20 54 0,0
17.01.2018 12:00:00 7,4 2,7 24 13 52 28 W 1012,7 13 36 0,2
17.01.2018 11:00:00 7,5 1,6 26 14 54 29 W 1012,4 25 48 0,0
17.01.2018 10:00:00 5,9 2,0 24 13 - - W 1012,0 19 12 0,0
17.01.2018 09:00:00 5,7 0,9 21 11 - - W 1011,3 18 0 0,0
17.01.2018 08:00:00 4,9 0,6 16 9 - - W 1010,4 15 0 0,0
17.01.2018 07:00:00 5,3 0,4 18 10 - - W 1009,4 16 0 0,0
17.01.2018 06:00:00 4,9 0,3 22 12 50 27 WNW 1008,3 16 0 1,2
17.01.2018 05:00:00 4,9 -0,3 22 12 - - W 1007,1 16 0 0,0
17.01.2018 04:00:00 4,7 -0,4 24 13 - - W 1005,4 20 0 0,0
17.01.2018 03:00:00 4,5 0,1 28 15 48 26 W 1004,1 21 0 0,0
17.01.2018 02:00:00 4,0 -0,4 35 19 65 35 W 1003,2 25 0 0,0
17.01.2018 01:00:00 3,6 0,5 29 16 50 27 W 1002,2 20 0 0,0
17.01.2018 00:00:00 2,7 -0,1 26 14 72 39 W 1001,9 30 - 0,0
16.01.2018 23:00:00 4,1 -0,1 26 14 - - W 1000,5 21 0 0,0
16.01.2018 22:00:00 3,0 1,0 21 11 46 25 W 1000,0 17 0 1,2
16.01.2018 21:00:00 3,8 1,6 21 11 - - W 998,7 11 0 1,0
16.01.2018 20:00:00 4,0 1,9 21 11 46 25 WNW 999,4 1,7 0 0,4
16.01.2018 19:00:00 4,1 2,2 16 9 50 27 W 998,4 23 0 0,6
16.01.2018 18:00:00 4,4 2,1 22 12 - - W 997,9 19 0 1,0
16.01.2018 17:00:00 4,9 2,8 21 11 48 26 W 998,0 10 0 0,2
16.01.2018 16:00:00 4,9 2,8 31 17 59 32 W 998,7 2,3 6 -
16.01.2018 15:00:00 6,5 3,1 24 13 55 30 W 998,7 40 18 0,2
16.01.2018 14:00:00 5,4 3,5 16 9 - - WNW 999,6 17 18 0,2
16.01.2018 13:00:00 6,0 2,3 39 21 61 33 W 1000,2 35 30 0,0
16.01.2018 12:00:00 7,8 1,6 26 14 - - W 1000,2 29 48 0,0
16.01.2018 11:00:00 6,8 2,7 22 12 - - W 1000,9 27 30 0,0
16.01.2018 10:00:00 5,9 3,4 26 14 - - W 1000,5 21 0 0,2
16.01.2018 09:00:00 5,8 2,8 21 11 50 27 W 999,8 22 0 0,6
16.01.2018 08:00:00 5,2 3,4 22 12 59 32 WNW 999,6 26 0 1,6
16.01.2018 07:00:00 7,1 2,7 22 12 - - W 998,8 23 0 0,0
16.01.2018 06:00:00 4,9 3,2 15 8 - - WSW 998,1 19 0 0,0
16.01.2018 05:00:00 6,3 3,4 31 17 54 29 W 998,1 4,3 0 0,4
16.01.2018 04:00:00 7,0 4,1 18 10 57 31 W 997,8 22 0 0,0
16.01.2018 03:00:00 7,2 5,2 31 17 67 36 W 997,4 20 0 1,2
16.01.2018 02:00:00 7,7 5,0 29 16 57 31 W 996,9 21 0 0,2
16.01.2018 01:00:00 8,5 5,4 24 13 50 27 W 997,1 13 0 0,0
16.01.2018 00:00:00 8,5 5,5 28 15 52 28 W 997,7 15 - 0,2
15.01.2018 23:00:00 8,3 5,6 26 14 54 29 W 998,0 5 0 0,0
15.01.2018 22:00:00 7,9 6,2 21 11 - - W 997,9 18 0 0,4
15.01.2018 21:00:00 7,9 5,4 24 13 46 25 W 998,3 3,8 0 0,2
15.01.2018 20:00:00 8,7 5,0 24 13 46 25 W 998,2 20 0 0,0
15.01.2018 19:00:00 8,4 5,1 28 15 - - W 997,8 25 0 0,2
15.01.2018 18:00:00 7,7 5,8 16 9 - - WNW 998,7 22 0 0,0
15.01.2018 17:00:00 7,9 5,8 13 7 - - W 998,0 19 6 0,2
15.01.2018 16:00:00 8,6 4,8 22 12 50 27 WNW 997,8 17 42 0,0
15.01.2018 15:00:00 9,6 6,6 24 13 48 26 W 997,6 28 54 0,0
15.01.2018 14:00:00 9,8 7,2 34 18 48 26 W 997,2 16 48 0,0
15.01.2018 13:00:00 10,8 8,6 31 17 52 28 W 996,7 30 30 0,4
15.01.2018 12:00:00 11,4 9,5 35 19 57 31 W 996,5 16 36 0,0
15.01.2018 11:00:00 11,0 9,7 31 17 52 28 W 997,4 1,9 0 0,6
15.01.2018 10:00:00 11,0 10,2 26 14 - - WSW 997,9 35 0 1,0
15.01.2018 09:00:00 10,2 9,7 16 9 - - SW 998,9 5 0 2,2
15.01.2018 08:00:00 10,5 9,4 13 7 - - SW 999,2 17 0 0,0
15.01.2018 07:00:00 10,5 9,3 16 9 - - SW 1000,6 45 0 0,0
15.01.2018 06:00:00 10,1 9,1 24 13 - - SW 1002,1 50 0 0,2
15.01.2018 05:00:00 9,6 8,6 29 16 46 25 SSW 1003,5 11 0 0,6
15.01.2018 04:00:00 9,2 8,0 28 15 50 27 SSW 1005,3 18 0 0,2
15.01.2018 03:00:00 9,1 7,3 28 15 - - SSW 1007,1 13 0 0,2
15.01.2018 02:00:00 9,5 6,5 29 16 - - SW 1009,1 30 0 -
15.01.2018 01:00:00 9,1 6,3 22 12 - - SW 1010,4 35 0 0,0
15.01.2018 00:00:00 8,2 6,4 16 9 - - S 1011,9 8 - 0,0
14.01.2018 23:00:00 7,8 5,8 16 9 - - S 1013,3 8 0 0,0
14.01.2018 22:00:00 7,1 4,7 15 8 - - S 1014,4 9 0 0,0
14.01.2018 21:00:00 6,5 3,6 15 8 - - S 1015,2 7 0 0,0
14.01.2018 20:00:00 6,3 4,1 11 6 - - S 1016,1 4,3 0 0,0
14.01.2018 19:00:00 6,5 4,3 13 7 - - SSE 1016,1 11 0 0,0
14.01.2018 18:00:00 6,5 4,6 8 4 - - S 1016,6 8 0 0,0
14.01.2018 17:00:00 6,4 4,2 5 3 - - SSW 1016,6 10 0 0,0
14.01.2018 16:00:00 6,0 3,4 9 5 - - SE 1016,5 11 18 0,0
14.01.2018 15:00:00 6,5 3,2 11 6 - - SSE 1017,2 11 18 0,0
14.01.2018 14:00:00 6,7 3,1 8 4 - - SE 1017,4 12 0 0,0
14.01.2018 13:00:00 6,7 2,9 2 1 - - WSW 1018,2 2,5 0 0,0
14.01.2018 12:00:00 6,2 3,8 4 2 - - SSE 1018,1 11 0 0,0
14.01.2018 11:00:00 4,2 4,2 2 1 - - NNE 1019,0 6 0 0,0
14.01.2018 10:00:00 1,5 1,4 2 1 - - ESE 1018,9 3,1 0 0,0
14.01.2018 09:00:00 -0,6 -1,0 4 2 - - WNW 1018,4 2,2 0 0,0
14.01.2018 08:00:00 0,3 -0,2 2 1 - - NE 1017,9 1,7 0 0,0
14.01.2018 07:00:00 2,7 2,2 5 3 - - N 1017,6 5 0 0,0
14.01.2018 06:00:00 3,8 2,5 9 5 - - NE 1017,3 6 0 0,0
14.01.2018 05:00:00 4,6 3,0 8 4 - - NNE 1017,2 7 0 0,0
14.01.2018 04:00:00 4,1 2,8 5 3 - - NNE 1017,1 8 0 0,0
14.01.2018 03:00:00 4,5 2,8 9 5 - - ENE 1016,8 9 0 0,0
14.01.2018 02:00:00 6,3 4,1 16 9 - - E 1016,6 12 0 -
14.01.2018 01:00:00 6,9 4,9 16 9 - - E 1016,6 10 0 0,0
14.01.2018 00:00:00 7,0 4,5 15 8 - - ESE 1016,3 15 - 0,0
13.01.2018 23:00:00 7,6 5,3 13 7 - - ESE 1016,2 15 0 0,0
13.01.2018 22:00:00 7,3 5,5 15 8 - - E 1015,9 15 0 0,0
13.01.2018 21:00:00 7,6 5,5 16 9 - - ESE 1015,8 15 0 0,0
13.01.2018 20:00:00 7,7 5,8 16 9 - - E 1015,6 13 0 0,0
13.01.2018 19:00:00 7,8 5,4 16 9 - - ESE 1015,3 13 0 0,0
13.01.2018 18:00:00 7,6 5,6 18 10 - - ESE 1015,2 12 0 0,0
13.01.2018 17:00:00 7,3 5,5 18 10 - - ESE 1014,6 13 0 0,0
13.01.2018 16:00:00 7,4 6,1 21 11 - - ESE 1014,2 9 0 0,0
13.01.2018 15:00:00 8,3 5,9 21 11 - - SE 1014,2 15 0 0,0
13.01.2018 14:00:00 8,6 5,8 22 12 - - SE 1014,5 18 0 0,0
13.01.2018 13:00:00 8,4 5,6 22 12 - - SSE 1014,8 19 0 0,0
13.01.2018 12:00:00 8,2 5,6 24 13 - - SSE 1014,9 16 0 0,0
13.01.2018 11:00:00 8,1 5,4 24 13 - - SE 1015,4 18 0 0,0
13.01.2018 10:00:00 7,9 5,4 24 13 - - SE 1015,3 18 0 0,0
13.01.2018 09:00:00 7,8 5,4 22 12 - - SE 1015,3 18 0 0,0
13.01.2018 08:00:00 7,5 5,0 26 14 - - SE 1015,2 17 0 0,0
13.01.2018 07:00:00 7,2 4,3 24 13 - - SE 1015,2 17 0 0,0
13.01.2018 06:00:00 7,1 4,4 24 13 - - SE 1015,5 15 0 0,0
13.01.2018 05:00:00 7,1 4,5 24 13 - - SSE 1016,1 16 0 0,0
13.01.2018 04:00:00 7,0 4,3 22 12 - - SSE 1016,3 13 0 0,0
13.01.2018 03:00:00 7,1 4,0 24 13 - - SSE 1017,2 15 0 0,0
13.01.2018 02:00:00 7,1 3,8 22 12 - - SSE 1017,9 17 0 0,0
13.01.2018 01:00:00 7,2 3,8 18 10 - - S 1018,4 14 0 0,0
13.01.2018 00:00:00 7,5 4,3 22 12 - - SSE 1019,4 13 - 0,0
12.01.2018 23:00:00 7,4 3,9 21 11 - - SSE 1019,6 18 0 0,0
12.01.2018 22:00:00 8,0 5,0 22 12 - - SSE 1020,0 18 0 0,0
12.01.2018 21:00:00 8,0 5,5 22 12 - - SSE 1020,5 16 0 0,0
12.01.2018 20:00:00 8,1 5,2 18 10 - - S 1020,8 17 0 0,0
12.01.2018 19:00:00 8,1 5,8 11 6 - - S 1021,1 17 0 0,0
12.01.2018 18:00:00 8,3 5,6 13 7 - - SSE 1021,3 22 0 0,0
12.01.2018 17:00:00 7,8 5,0 11 6 - - SSE 1021,4 25 0 0,0
12.01.2018 16:00:00 8,3 5,4 11 6 - - SSE 1021,8 27 0 0,0
12.01.2018 15:00:00 8,4 6,6 16 9 - - SE 1022,3 12 0 0,0
12.01.2018 14:00:00 8,1 6,9 21 11 - - ESE 1022,7 7 6 0,0
12.01.2018 13:00:00 5,5 5,5 4 2 - - ENE 1023,5 5 24 0,0

tt = temperature
td = dewpoint
ff = wind speed
fx = gusts
dd = wind direction
ppp = reduced air pressure
vv = visibility
sd = sunshine duration
rr = precipitation

Next stations